Weather History for KMOP - May, 2013

Change the Weather History Date:

Wednesday, May 8, 2013

  Actual Average (KAMN) Record (KAMN)
Temperature  
Mean Temperature 63 °F -  
Max Temperature 78 °F 67 °F 86 °F (1970)
Min Temperature 48 °F 42 °F 26 °F (1989)
Degree Days  
Heating Degree Days 2    
Growing Degree Days 13 (Base 50)    
Moisture  
Dew Point 43 °F    
Average Humidity 48    
Maximum Humidity 87    
Minimum Humidity 23    
Precipitation  
Precipitation 0.00 in - - ()
Sea Level Pressure  
Sea Level Pressure 30.01 in    
Wind  
Wind Speed 2 mph (NE)    
Max Wind Speed 7 mph    
Max Gust Speed -    
Visibility 10 miles    
Events      
Averages and records for this station are not official NWS values.
T = Trace of Precipitation, MM = Missing Value Source: NWS Daily Summary

Daily Weather History Graph

Daily Weather History Graph

Search for Another Location

Airport or City:

Trip Planner

Search our weather history database for the weather conditions in past years. The results will help you decide how hot, cold, wet, or windy it might be!

Date:

Astronomy

May. 08, 2013 Rise Set
Actual Time 6:21 AM EDT 8:49 PM EDT
Civil Twilight 5:49 AM EDT 9:22 PM EDT
Nautical Twilight 5:09 AM EDT 10:02 PM EDT
Astronomical Twilight 4:24 AM EDT 10:48 PM EDT
Moon 5:31 AM EDT (5/8) 7:45 PM EDT (5/8)
Length of Visible Light 15h 32m
Length of Day
14h 28m
Waning Crescent, 2% of the Moon is Illuminated
May 8
Waning Crescent
May 9
New
May 18
First Quarter
May 25
Full
May 31
Last Quarter

Hourly Weather History & Observations

Time (EDT) Temp. Dew Point Humidity Pressure Visibility Wind Dir Wind Speed Gust Speed Precip Events Conditions
12:15 AM 59.7 °F 40.3 °F 49% 30.04 in 10.0 mi East 4.6 mph - N/A   Mostly Cloudy
12:35 AM 59.2 °F 41.4 °F 52% 30.03 in 10.0 mi East 5.8 mph - N/A   Scattered Clouds
12:54 AM 59.2 °F 41.5 °F 52% 30.03 in 10.0 mi East 4.6 mph - N/A   Clear
1:15 AM 58.3 °F 41.9 °F 54% 30.03 in 10.0 mi Calm Calm - N/A   Clear
1:35 AM 58.1 °F 43.2 °F 58% 30.03 in 10.0 mi Calm Calm - N/A   Clear
1:54 AM 56.8 °F 45.1 °F 65% 30.03 in 10.0 mi Calm Calm - N/A   Clear
2:15 AM 55.4 °F 44.6 °F 67% 30.03 in 10.0 mi Calm Calm - N/A   Clear
2:35 AM 54.3 °F 43.9 °F 68% 30.03 in 10.0 mi Calm Calm - N/A   Scattered Clouds
2:54 AM 53.4 °F 45.1 °F 74% 30.03 in 10.0 mi Calm Calm - N/A   Scattered Clouds
3:15 AM 52.0 °F 44.8 °F 76% 30.03 in 10.0 mi Calm Calm - N/A   Clear
3:35 AM 53.1 °F 45.0 °F 74% 30.02 in 10.0 mi Calm Calm - N/A   Clear
3:55 AM 52.2 °F 45.5 °F 78% 30.02 in 10.0 mi Calm Calm - N/A   Clear
4:15 AM 51.1 °F 45.0 °F 80% 30.03 in 10.0 mi Calm Calm - N/A   Clear
4:34 AM 50.5 °F 45.0 °F 81% 30.03 in 10.0 mi Calm Calm - N/A   Clear
4:55 AM 50.7 °F 45.3 °F 82% 30.03 in 10.0 mi Calm Calm - N/A   Clear
5:15 AM 49.5 °F 44.4 °F 83% 30.03 in 10.0 mi Calm Calm - N/A   Clear
5:34 AM 50.2 °F 43.7 °F 78% 30.03 in 10.0 mi Calm Calm - N/A   Clear
5:55 AM 49.1 °F 45.3 °F 87% 30.03 in 10.0 mi Calm Calm - N/A   Clear
6:15 AM 48.2 °F 44.6 °F 87% 30.03 in 10.0 mi Calm Calm - N/A   Clear
6:34 AM 48.7 °F 44.8 °F 86% 30.03 in 10.0 mi Calm Calm - N/A   Clear
6:55 AM 50.4 °F 43.9 °F 78% 30.03 in 10.0 mi Calm Calm - N/A   Clear
7:15 AM 51.1 °F 45.7 °F 82% 30.04 in 10.0 mi Calm Calm - N/A   Clear
7:34 AM 52.9 °F 45.1 °F 75% 30.04 in 10.0 mi Calm Calm - N/A   Clear
7:55 AM 55.0 °F 40.3 °F 58% 30.04 in 10.0 mi Calm Calm - N/A   Clear
8:15 AM 56.7 °F 40.1 °F 54% 30.04 in 10.0 mi Calm Calm - N/A   Clear
8:34 AM 58.5 °F 40.8 °F 52% 30.04 in 10.0 mi Calm Calm - N/A   Clear
8:55 AM 60.4 °F 41.0 °F 49% 30.04 in 10.0 mi Calm Calm - N/A   Clear
9:15 AM 63.1 °F 41.9 °F 46% 30.04 in 10.0 mi Calm Calm - N/A   Clear
9:35 AM 65.5 °F 42.3 °F 43% 30.04 in 10.0 mi Calm Calm - N/A   Clear
9:55 AM 68.0 °F 43.5 °F 41% 30.04 in 10.0 mi Calm Calm - N/A   Clear
10:14 AM 70.2 °F 43.9 °F 39% 30.03 in 10.0 mi Calm Calm - N/A   Clear
10:35 AM 71.6 °F 45.1 °F 39% 30.03 in 10.0 mi Calm Calm - N/A   Clear
10:55 AM 72.5 °F 43.3 °F 35% 30.04 in 10.0 mi Calm Calm - N/A   Clear
11:14 AM 73.4 °F 43.2 °F 34% 30.03 in 10.0 mi Calm Calm - N/A   Clear
11:35 AM 74.3 °F 43.2 °F 33% 30.03 in 10.0 mi NNW 3.5 mph - N/A   Clear
11:55 AM 75.4 °F 43.9 °F 32% 30.03 in 10.0 mi NW 3.5 mph - N/A   Clear
12:14 PM 76.1 °F 45.3 °F 33% 30.03 in 10.0 mi North 3.5 mph - N/A   Clear
12:35 PM 76.3 °F 44.6 °F 32% 30.02 in 10.0 mi NNW 4.6 mph - N/A   Clear
12:55 PM 76.6 °F 44.6 °F 32% 30.02 in 10.0 mi North 4.6 mph - N/A   Clear
1:14 PM 77.7 °F 44.6 °F 31% 30.01 in 10.0 mi West 5.8 mph - N/A   Clear
1:35 PM 78.6 °F 44.1 °F 29% 30.01 in 10.0 mi WSW 4.6 mph - N/A   Clear
1:55 PM 78.8 °F 43.7 °F 29% 30.00 in 10.0 mi SW 5.8 mph - N/A   Clear
2:14 PM 78.3 °F 42.3 °F 28% 29.99 in 10.0 mi Calm Calm - N/A   Mostly Cloudy
2:35 PM 78.4 °F 41.4 °F 27% 29.99 in 10.0 mi SSE 5.8 mph - N/A   Scattered Clouds
2:55 PM 78.3 °F 41.2 °F 27% 29.98 in 10.0 mi SW 3.5 mph - N/A   Mostly Cloudy
3:14 PM 77.2 °F 40.6 °F 27% 29.99 in 10.0 mi North 6.9 mph - N/A   Overcast
3:35 PM 75.2 °F 43.2 °F 32% 29.99 in 10.0 mi NNW 6.9 mph - N/A   Mostly Cloudy
3:55 PM 75.4 °F 42.3 °F 30% 29.98 in 10.0 mi NW 3.5 mph - N/A   Overcast
4:14 PM 75.4 °F 42.6 °F 31% 29.98 in 10.0 mi NNW 4.6 mph - N/A   Scattered Clouds
4:35 PM 75.6 °F 43.3 °F 32% 29.97 in 10.0 mi Calm Calm - N/A   Scattered Clouds
4:55 PM 76.1 °F 43.0 °F 31% 29.96 in 10.0 mi Calm Calm - N/A   Clear
5:14 PM 76.5 °F 41.5 °F 29% 29.96 in 10.0 mi Calm Calm - N/A   Clear
5:35 PM 77.0 °F 39.4 °F 26% 29.96 in 10.0 mi Calm Calm - N/A   Clear
5:55 PM 78.1 °F 37.9 °F 24% 29.96 in 7.0 mi NNE 3.5 mph - N/A   Clear
6:14 PM 78.1 °F 37.2 °F 23% 29.96 in 10.0 mi Calm Calm - N/A   Clear
6:35 PM 77.7 °F 36.7 °F 23% 29.96 in 10.0 mi Calm Calm - N/A   Clear
6:55 PM 77.2 °F 41.7 °F 28% 29.95 in 10.0 mi Calm Calm - N/A   Clear
7:14 PM 74.7 °F 44.8 °F 34% 29.95 in 10.0 mi ENE 5.8 mph - N/A   Clear
7:35 PM 73.9 °F 44.8 °F 35% 29.95 in 10.0 mi East 4.6 mph - N/A   Clear
7:54 PM 73.2 °F 46.4 °F 38% 29.95 in 10.0 mi Calm Calm - N/A   Clear
8:14 PM 73.4 °F 45.0 °F 36% 29.96 in 10.0 mi Calm Calm - N/A   Clear
8:35 PM 72.1 °F 45.1 °F 38% 29.96 in 10.0 mi ENE 3.5 mph - N/A   Clear
8:54 PM 70.9 °F 44.4 °F 39% 29.96 in 10.0 mi ESE 3.5 mph - N/A   Scattered Clouds
9:14 PM 64.8 °F 49.1 °F 57% 29.96 in 10.0 mi ENE 4.6 mph - N/A   Scattered Clouds
9:35 PM 67.8 °F 41.7 °F 39% 29.97 in 10.0 mi ENE 4.6 mph - N/A   Scattered Clouds
9:54 PM 67.1 °F 42.1 °F 40% 29.98 in 10.0 mi East 6.9 mph - N/A   Mostly Cloudy
10:15 PM 65.3 °F 42.6 °F 44% 29.98 in 10.0 mi East 5.8 mph - N/A   Mostly Cloudy
10:35 PM 65.7 °F 42.4 °F 43% 29.98 in 10.0 mi Calm Calm - N/A   Overcast
10:54 PM 65.3 °F 42.3 °F 43% 29.99 in 10.0 mi Calm Calm - N/A   Overcast
11:15 PM 64.4 °F 44.1 °F 48% 29.98 in 10.0 mi Calm Calm - N/A   Overcast
11:35 PM 64.6 °F 41.9 °F 44% 29.98 in 10.0 mi Calm Calm - N/A   Overcast
11:54 PM 61.5 °F 46.6 °F 58% 29.98 in 10.0 mi Calm Calm - N/A   Scattered Clouds